CAPE
1087 898 790 596 540 401 150 78 35 6 16 17 48 68 79 62 58 83 104 71 184 168 208 192 111 98 303 618 686 696 654 723 711 679 665 610 603 607
1267 1276 1322 588 515 290 315 273 184 67 10 38 70 96 92 59 46 66 80 78 36 154 248 150 91 79 134 169 291 427 485 496 510 522 504 484 466 457
1392 1263 1268 1075 856 431 543 626 433 299 218 116 123 109 123 66 78 216 213 147 138 120 179 107 62 46 59 72 89 110 182 255 362 425 444 433 428 354
1460 1271 1224 1350 996 942 860 744 463 422 246 236 192 191 241 199 143 131 151 247 218 187 77 66 46 9 0 1 6 5 1 21 63 140 256 232 224 220
1624 1435 1304 1389 1106 1100 992 745 525 488 479 363 262 374 472 331 182 107 79 53 118 274 143 90 50 22 3 0 0 0 0 0 0 0 0 55 54 45
1729 1584 1458 1252 1196 1285 1123 867 746 818 854 809 525 335 249 203 177 138 145 197 215 383 386 216 51 48 40 3 0 0 0 0 0 0 0 0 0 0
1994 1753 1509 1601 1671 1140 1371 1269 1236 1126 1017 910 762 617 280 333 341 230 155 135 157 221 268 254 83 49 27 5 0 0 0 0 0 0 0 0 0 0
1846 1732 1628 1742 1632 1072 1060 1081 1103 1186 1075 996 901 351 16 246 522 427 386 296 249 254 225 176 216 166 102 34 17 12 21 0 0 0 0 0 0 0
1958 1873 1726 1670 1519 1303 1143 973 861 902 982 838 315 80 53 46 237 562 560 501 385 373 359 243 198 248 278 181 76 24 0 0 0 0 0 0 0 0
2021 1888 1730 1526 1620 1500 1400 1188 995 727 526 426 327 294 205 209 338 451 286 109 209 285 483 255 154 123 211 392 268 89 36 0 0 1 0 0 0 0
2162 2013 1652 1365 1339 1567 1618 1531 1560 1326 1229 1133 1044 709 369 445 665 591 150 0 0 19 303 334 169 103 98 112 134 109 51 3 0 5 5 0 0 0
1787 1943 1914 1694 1608 1445 1453 1322 1431 1475 1364 1258 661 435 504 601 397 162 100 26 0 85 145 202 72 101 23 81 58 51 22 1 0 0 0 0 0 0
1516 1468 1625 1545 1380 1233 998 1128 1233 1153 1059 710 744 653 594 578 372 111 105 119 109 78 207 213 119 60 59 25 88 28 13 15 3 0 0 2 0 0
1588 1633 1330 1353 1077 797 571 636 644 659 781 579 573 405 274 191 328 329 204 150 154 133 146 120 71 20 8 38 54 55 13 7 11 0 0 0 0 0
880 863 860 818 867 709 629 376 285 373 427 445 383 350 329 299 271 246 208 243 198 201 235 219 144 43 16 0 0 30 55 69 18 0 0 0 0 0
876 1009 960 798 740 666 524 282 174 316 394 407 494 479 291 214 167 134 123 128 82 81 116 116 83 157 37 4 70 53 51 63 21 3 0 0 0 0
605 1127 975 735 744 784 661 549 443 333 304 282 262 229 179 101 61 54 60 67 44 26 70 122 117 27 47 76 93 106 55 41 25 1 0 6 4 7
518 569 583 474 396 306 226 168 96 77 85 71 60 66 55 47 36 30 15 4 3 1 1 7 7 0 0 0 0 0 0 0 0 0 0 2 2 0
287 260 173 96 80 82 51 18 0 0 1 18 0 15 3 0 1 0 0 0 4 6 4 16 20 18 0 1 0 0 0 0 0 0 0 0 0 19
94 23 3 0 4 0 0 0 0 6 4 4 1 0 0 0 0 0 0 0 0 0 0 0 1 1 24 31 7 0 0 0 0 0 0 0 0 0
0 0 0 0 1 2 0 0 0 0 0 0 0 0 0 0 0 0 0 7 7 0 0 0 0 10 3 1 0 0 0 0 1 9 6 2 0 0
0 0 0 0 1 0 0 0 0 0 0 0 0 0 0 0 0 0 1 4 7 9 5 0 6 2 0 0 0 0 0 0 0 0 0 0 1 9
0 0 0 0 0 0 0 0 0 0 0 0 0 0 0 0 0 0 0 0 0 0 0 0 0 7 0 0 0 0 0 0 0 0 0 0 0 1
CIN
-33 -37 -36 -49 -35 -41 -49 -48 -28 -55 -47 -66 -60 -76 -91 -94 -105 -77 -94 -138 -63 -50 -54 -53 -64 -66 -52 -39 -40 -46 -54 -36 -30 -28 -22 -23 -20 -10
-22 -17 -21 -53 -44 -49 -26 -25 -19 -32 -59 -43 -53 -54 -76 -83 -96 -83 -100 -80 -105 -55 -50 -74 -69 -88 -58 -69 -73 -56 -53 -58 -56 -55 -54 -47 -42 -33
-9 -13 -23 -35 -31 -59 -11 -5 -13 -14 -11 -42 -26 -35 -46 -69 -67 -37 -48 -56 -66 -73 -44 -73 -92 -100 -96 -87 -84 -84 -71 -69 -59 -50 -49 -50 -40 -50
-9 -11 -22 -18 -29 -23 -7 -6 -46 -35 -47 -103 -26 -31 -40 -41 -44 -42 -36 -47 -38 -43 -55 -65 -97 -130 0 -6 -109 -107 -5 -103 -93 -70 -54 -67 -68 -65
-13 -12 -15 -12 -13 -13 -19 -19 -48 -49 -39 -34 -45 -27 -19 -31 -42 -62 -64 -92 -45 -40 -45 -58 -83 -113 -94 0 0 0 0 0 0 0 0 -93 -97 -87
-12 -16 -9 -15 -16 -7 -11 -30 -31 -18 -10 -10 -21 -22 -22 -34 -39 -43 -44 -41 -42 -36 -19 -45 -61 -108 -130 -67 0 0 0 0 0 0 0 0 0 0
-13 -21 -24 -15 -9 -35 -11 -9 -9 -5 -6 -6 -6 -8 -17 -10 -11 -24 -39 -34 -29 -23 -18 -28 -49 -94 -138 -190 0 0 0 0 0 0 0 0 0 0
-38 -36 -40 -18 -20 -80 -71 -43 -25 -7 -7 -7 -9 -32 -67 -56 -15 -8 -5 -4 -18 -35 -25 -43 -37 -37 -83 -145 -166 -172 -213 0 0 0 0 0 0 0
-45 -54 -64 -53 -52 -73 -99 -108 -100 -64 -35 -31 -71 -114 -113 -126 -78 -23 -13 -15 -26 -19 -3 -35 -27 -26 -50 -69 -90 -123 -49 0 0 0 0 0 0 0
-28 -27 -42 -54 -32 -30 -36 -54 -76 -104 -115 -121 -122 -95 -106 -81 -59 -42 -54 -97 -81 -59 -10 -58 -71 -68 -34 -17 -26 -56 -96 -66 0 -94 0 0 0 0
-10 -11 -20 -30 -29 -21 -24 -15 -15 -21 -28 -35 -32 -60 -111 -61 -39 -30 -79 0 0 -55 -36 -9 -62 -67 -70 -90 -78 -58 -63 -13 -10 -103 -96 0 0 0
-13 -8 -14 -17 -15 -13 -12 -11 -11 -10 -9 -12 -73 -115 -85 -51 -67 -91 -80 -56 0 -65 -57 -22 -66 -30 -103 -119 -106 -87 -81 -9 0 0 0 0 0 0
-29 -18 -17 -17 -23 -21 -34 -19 -16 -27 -19 -26 -24 -32 -37 -42 -55 -98 -80 -58 -36 -25 -33 -29 -47 -43 -24 -92 -129 -121 -101 -116 -82 0 0 -88 0 0
-12 -15 -26 -26 -46 -58 -91 -68 -63 -60 -38 -36 -29 -39 -37 -28 -19 -23 -41 -54 -51 -28 -29 -33 -16 -34 -28 -68 -68 -123 -92 -88 -99 0 0 0 0 0
-118 -88 -74 -66 -47 -54 -57 -99 -112 -75 -54 -36 -40 -49 -34 -18 -20 -27 -31 -18 -26 -32 -34 -35 -25 -34 -41 0 0 -57 -45 -81 -77 -25 0 0 0 0
-109 -86 -55 -52 -44 -43 -60 -100 -108 -54 -36 -29 -15 -12 -48 -42 -25 -25 -20 -26 -41 -37 -29 -29 -35 -32 -56 -17 -35 -50 -46 -12 -100 -112 -18 0 0 0
-80 -41 -26 -18 -4 -9 -18 -6 -11 -16 -15 -16 -12 -11 -15 -37 -55 -37 -27 -31 -40 -37 -28 -27 -15 -35 -33 -17 -9 -35 -21 -22 -46 -10 0 -108 -182 -202
-53 -26 -16 -16 -7 -12 -26 -23 -19 -49 -59 -66 -84 -78 -64 -57 -56 -44 -53 -31 -14 -23 -11 -19 -26 -4 0 0 0 0 0 0 0 0 -14 -48 -41 0
-69 -58 -46 -81 -116 -117 -133 -140 -14 -9 -5 -126 -4 -145 -43 0 -9 0 0 0 -22 -25 -31 -35 -22 -5 0 0 0 0 0 0 0 0 0 0 0 -77
-109 -154 -93 0 -175 0 -7 -4 0 -7 -5 -9 -5 -3 0 0 0 0 0 0 0 0 0 0 -15 -3 0 0 0 0 0 0 0 0 0 0 0 0
0 0 0 0 -6 -11 -11 0 0 0 0 0 0 0 0 0 0 0 0 -19 -21 0 0 0 0 -19 -8 -5 0 0 0 0 -5 -15 -15 -12 0 0
0 0 0 -14 -24 0 0 0 0 0 0 0 0 0 0 0 -1 0 -5 -14 -13 -13 -11 0 -22 -6 0 0 0 0 0 0 0 0 0 -1 -20 0
0 0 0 0 0 0 0 0 0 0 0 0 0 0 0 0 0 0 0 0 0 0 0 0 0 -24 0 -1 -1 0 0 0 0 0 0 0 -1 -39
Wind_Speed
6 6 2 3 4 6 9 12 11 8 3 6 5 7 9 14 20 19 21 33 34 33 32 31 31 29 31 38 42 42 40 38 37 36 34 34 29 12
4 3 3 4 4 5 4 12 10 5 6 10 5 4 6 7 14 13 18 31 31 32 32 30 30 31 31 33 38 38 44 42 39 37 34 28 23 19
3 3 2 4 5 6 7 6 5 4 3 16 5 6 7 8 9 8 9 19 29 31 30 30 28 29 31 32 33 33 41 44 43 42 40 34 18 13
4 4 4 6 7 8 9 10 10 8 9 23 22 11 8 7 6 1 3 20 20 19 27 30 24 22 25 30 34 36 38 41 40 37 36 34 22 18
6 5 5 6 8 9 10 10 11 11 11 9 10 11 8 8 7 2 2 12 22 14 18 16 26 23 23 28 31 34 36 36 31 28 29 30 24 23
6 8 9 7 7 8 8 9 9 9 9 8 9 8 12 10 10 8 2 1 9 7 8 11 17 19 17 25 29 31 31 32 29 27 28 28 27 27
7 7 8 11 11 9 9 10 8 6 8 7 8 15 16 14 13 13 6 6 8 2 7 9 8 10 19 21 21 20 22 24 24 25 26 28 29 30
7 8 8 8 10 9 10 9 7 7 6 11 14 17 19 17 16 15 14 18 21 14 6 8 8 11 12 12 15 16 18 20 22 24 27 29 31 33
7 7 7 8 8 8 10 9 10 8 8 6 4 3 11 13 14 14 13 14 14 13 20 20 14 10 12 12 13 16 18 18 19 21 24 32 34 36
4 5 4 4 5 6 6 8 10 10 9 8 9 8 3 8 10 15 16 18 19 19 15 22 18 16 17 14 11 12 13 16 18 20 21 26 30 37
3 2 2 3 4 2 5 7 8 6 7 7 7 7 4 3 3 10 8 16 21 22 18 20 23 24 22 21 17 15 13 16 14 16 19 22 28 34
10 7 1 1 1 6 5 1 3 2 3 6 9 5 3 2 3 4 9 11 15 21 16 14 21 22 26 23 21 22 20 18 14 15 15 15 18 26
13 12 7 6 6 7 7 7 6 12 10 12 15 13 8 7 8 8 8 9 13 14 18 15 21 21 20 26 24 23 23 23 21 21 18 19 16 20
19 21 20 18 17 18 16 12 14 18 18 16 17 16 16 17 17 16 14 13 11 11 14 13 19 19 20 27 28 24 23 24 24 26 24 24 23 19
20 24 24 26 25 26 25 22 20 18 17 17 16 18 21 22 22 21 19 17 15 16 14 15 17 19 19 24 25 26 27 25 22 25 26 25 25 24
23 28 28 26 25 24 23 23 21 18 18 19 20 22 23 24 23 22 21 21 21 21 19 17 16 18 25 26 26 30 27 29 25 23 25 26 27 25
24 26 25 23 25 23 21 20 19 20 20 20 22 24 24 23 21 21 21 20 20 23 24 21 21 22 23 24 28 28 29 26 24 26 26 32 28 26
20 24 21 19 19 19 19 19 20 21 21 22 22 23 25 25 24 23 22 23 25 25 25 25 25 26 27 25 20 23 24 26 25 27 26 26 34 32
11 13 15 17 19 19 18 19 20 22 23 22 23 24 23 25 25 25 25 26 27 28 29 29 28 28 30 30 23 18 25 29 29 28 25 25 24 30
10 12 14 16 17 19 19 20 21 22 22 22 22 23 24 24 25 27 27 28 29 30 31 30 30 29 28 29 31 31 22 26 28 28 27 27 25 26
10 14 16 17 17 18 18 18 20 21 21 21 23 24 25 25 25 26 27 27 27 29 31 31 28 26 27 29 31 32 29 25 24 26 27 29 30 29
12 14 15 16 17 18 19 19 20 21 23 24 25 26 28 28 30 29 30 31 31 30 31 30 29 30 29 30 34 35 35 32 29 26 25 27 32 34
13 15 15 16 18 19 20 21 21 22 24 25 27 27 29 30 31 32 32 34 34 32 32 34 33 32 33 34 36 36 38 38 36 36 34 30 28 28
Wind_Direction
179 181 179 186 23 355 352 334 339 1 56 31 106 137 165 178 191 189 195 208 212 211 211 207 204 201 203 210 216 218 218 218 219 219 219 221 215 210
153 103 134 76 88 61 54 337 339 358 3 3 96 75 116 158 179 183 193 209 208 212 213 207 204 206 207 209 212 213 222 220 219 218 216 211 210 210
126 63 120 120 123 127 117 96 53 72 72 262 95 96 142 156 162 163 176 191 206 209 212 210 208 209 210 211 212 213 218 223 223 223 222 218 219 233
103 79 118 96 120 117 123 140 124 92 357 254 264 174 144 140 158 178 172 196 198 203 211 215 211 212 212 214 216 217 218 220 220 220 220 220 229 247
116 101 96 87 125 127 114 120 128 124 119 85 126 55 70 44 39 82 187 194 210 205 208 212 213 214 216 217 218 219 221 222 224 230 228 228 239 253
116 126 128 117 107 107 97 101 98 98 114 121 131 120 37 36 34 30 63 196 214 233 242 237 216 219 227 218 218 221 223 224 229 235 238 238 248 259
123 111 134 147 146 116 116 129 124 77 28 32 18 350 356 11 16 10 52 27 352 251 226 230 263 270 275 222 223 233 235 234 241 246 249 252 255 257
132 133 139 134 140 137 149 140 103 114 95 358 338 334 334 343 354 358 2 345 335 357 0 318 285 269 273 248 260 249 261 247 249 258 266 269 267 266
133 131 131 138 140 144 156 163 171 162 157 141 138 51 360 358 355 352 356 355 352 354 334 327 331 315 298 281 268 277 266 259 255 253 261 275 274 273
112 123 125 132 136 153 161 170 174 172 175 172 177 183 109 11 1 350 343 336 334 335 340 328 337 332 326 316 293 279 264 262 264 261 263 274 277 276
19 34 100 126 148 139 161 173 182 176 172 180 191 204 187 132 36 7 4 343 331 327 333 326 326 324 326 325 319 312 297 284 275 267 273 275 278 279
341 338 207 293 257 337 335 206 225 214 9 358 349 354 358 339 346 344 350 347 340 334 344 345 336 331 320 323 325 326 326 314 303 293 291 280 279 278
337 335 329 325 324 326 324 321 321 330 333 336 334 337 335 326 328 329 329 328 329 327 334 335 330 332 331 321 323 322 321 319 319 315 309 303 297 288
321 327 325 324 324 322 322 323 323 323 323 325 326 325 325 326 330 331 330 331 324 317 327 330 331 333 332 317 318 328 324 320 316 314 314 311 305 297
317 309 311 308 312 311 312 316 320 322 324 325 326 324 323 321 324 327 330 330 329 327 322 322 323 325 327 324 323 321 321 321 318 314 312 313 313 308
313 298 303 308 314 315 318 319 322 326 327 328 329 328 327 327 326 327 329 329 329 328 327 325 322 319 318 319 320 316 318 316 316 312 312 309 307 306
300 292 300 312 312 319 324 328 331 331 332 332 328 327 328 331 334 334 335 334 331 327 328 330 329 325 324 322 319 318 317 318 322 317 319 305 303 305
300 294 307 319 325 330 335 338 338 335 335 335 336 335 331 332 333 333 332 329 325 325 324 325 326 325 325 325 322 321 323 320 321 321 319 320 309 310
324 322 323 327 330 337 343 344 341 337 338 339 339 338 340 339 337 336 334 332 327 325 324 324 322 320 319 320 325 329 325 322 320 319 320 319 321 319
330 326 331 335 339 345 346 346 342 341 341 343 344 346 347 344 338 333 333 328 327 325 322 323 323 322 321 320 317 318 323 321 319 317 318 320 322 320
335 337 336 340 345 353 353 355 354 351 350 350 349 348 345 344 341 340 337 335 332 330 327 327 329 330 326 324 320 319 322 322 317 315 316 315 315 318
360 353 355 355 358 359 357 355 353 347 343 346 345 342 337 337 335 333 332 329 328 327 327 328 329 329 327 325 321 319 319 321 319 313 307 307 308 307
16 8 6 358 359 358 354 350 347 345 345 343 340 339 337 334 333 331 330 328 328 330 329 325 325 325 321 319 317 317 316 316 317 314 314 313 306 303